CAPE
117 63 807 1347 1452 1238 952 792 423 530 476 654 927 1021 1170 1361 1158 901 800 812 894 992 1075 980 756 742 609 409 208 213 162 251 351 317 208 136 174 208 175 241 126 261 354
135 177 695 1234 1357 1154 1001 901 526 553 599 817 887 898 1011 1258 1180 870 632 743 803 820 912 786 673 614 408 350 252 182 131 303 517 469 324 3 0 2 2 1 96 159 229
107 90 507 1072 1261 1152 1063 1014 699 610 687 814 887 862 967 1200 1058 731 722 736 828 879 1047 805 871 605 400 375 274 136 37 102 364 773 736 188 0 13 2 41 301 203 149
335 14 291 766 1068 1091 1039 944 846 817 765 717 802 753 889 893 769 663 672 733 720 772 961 1086 939 904 648 579 388 284 173 83 228 367 571 738 5 52 266 97 8 114 137
402 200 157 271 669 950 924 967 1002 994 777 639 671 734 764 689 716 722 528 561 734 756 899 1221 1190 865 646 474 284 215 161 97 235 356 787 509 68 18 113 193 60 0 0
469 372 17 39 220 479 762 903 1017 1016 784 563 531 617 682 650 733 676 484 458 665 843 944 997 943 585 397 314 210 125 101 90 139 387 657 664 212 23 0 0 0 0 0
594 704 18 3 90 280 616 725 940 941 776 566 491 574 642 710 801 663 473 387 594 856 1012 929 598 286 167 146 94 29 0 0 0 28 403 724 332 128 36 0 0 0 0
844 786 54 0 33 174 481 622 764 782 587 422 416 474 596 786 780 549 448 415 605 839 874 676 315 93 27 2 0 0 0 0 0 0 194 1098 539 285 71 8 0 0 0
1368 1036 219 1 0 39 274 482 595 497 316 281 389 462 580 617 514 305 210 260 447 605 543 311 61 0 0 0 0 0 0 0 0 0 3 791 757 492 164 119 0 0 0
1377 1337 579 106 39 64 107 183 205 168 170 224 325 435 481 407 306 126 82 157 216 259 204 66 0 0 0 0 0 0 0 0 0 0 0 711 813 682 334 369 133 0 0
1149 1574 917 330 217 171 189 151 133 116 155 232 365 358 251 176 93 41 17 59 50 81 13 0 0 0 0 0 0 0 0 0 0 0 85 430 546 487 299 761 553 206 14
1513 1425 1304 641 521 432 349 394 132 173 296 303 332 287 208 61 94 8 36 8 112 8 0 0 0 0 0 0 0 0 0 0 0 2 300 207 144 56 319 805 1046 584 202
1568 1691 1567 1214 798 664 658 788 500 261 192 223 247 326 206 145 139 145 138 28 60 60 0 0 0 0 0 0 0 0 0 0 0 217 173 43 13 0 82 309 828 901 500
1330 1564 1652 1647 1285 959 923 1022 1078 517 464 364 300 351 524 189 252 572 217 237 155 131 0 0 0 0 0 0 0 5 0 0 45 172 115 2 0 0 4 155 400 923 696
722 1213 1537 1713 1805 1736 1379 1204 1260 1133 852 748 657 591 604 709 585 663 723 554 646 212 90 23 84 79 29 25 94 159 100 83 8 78 70 0 0 0 0 4 368 1053 796
384 711 1301 1284 1985 2043 1829 1928 1516 1594 1216 1168 1107 1001 776 882 864 1057 843 834 489 700 479 413 358 509 702 592 519 414 306 160 102 95 151 0 0 0 0 0 19 887 851
306 478 971 1187 2007 2217 2380 1888 2180 1394 1608 1587 1455 1464 1201 1036 1138 1256 1097 871 968 800 922 890 851 771 907 1016 783 724 337 286 244 352 196 6 0 0 0 0 3 234 457
190 301 847 1069 1424 2235 2311 2426 2129 2110 1426 1392 1659 1487 1800 1451 1244 1145 1361 1173 1003 1105 1009 933 850 936 919 911 912 833 456 398 403 341 480 313 2 0 0 0 0 0 0
15 238 905 1047 1212 1876 2156 2223 2270 1941 1891 1725 1507 1728 1606 1765 1585 1160 1364 1152 1355 1048 1218 1160 1148 1014 1067 958 1173 1130 852 612 627 703 561 359 226 2 0 0 0 0 0
0 103 898 1131 1217 1644 2126 2157 2098 1897 1801 1821 1804 1535 1782 1734 1686 1658 1288 1518 1211 1340 1257 1237 1272 1413 1198 1157 1174 745 713 1076 1200 885 614 446 407 203 0 0 0 0 0
0 265 888 983 1219 1395 1774 1911 1671 1756 1553 1713 1639 1749 1540 1679 1840 1715 1758 1508 1568 1303 1314 1337 1435 1293 1308 1450 1004 901 884 1108 1024 894 787 586 461 345 167 0 0 0 0
43 195 833 1215 1322 1319 1669 1822 1824 1558 1558 1451 1519 1613 1620 1580 1630 1864 1818 1814 1637 1469 1559 1432 1479 1466 1559 1566 1302 1168 1062 1182 1346 1282 1201 1008 810 466 133 0 0 0 0
79 268 410 1172 1799 1608 1507 1650 1692 1854 1579 1319 1447 1405 1494 1517 1581 1636 1899 1902 1754 1734 1538 1518 1614 1551 1619 1619 1561 1296 1005 762 806 435 418 533 578 420 45 0 0 0 0
4 4 34 544 1572 1972 1915 1867 1740 1640 1584 1613 1471 1532 1469 1712 1550 1632 1721 1744 1933 1753 1706 1755 1750 1700 1684 1594 1704 1424 1179 613 453 200 0 2 14 5 0 0 0 0 0
0 0 0 11 80 1821 2100 2094 2025 2293 2222 2026 1916 1670 1891 1925 2020 1848 1872 1935 1641 1982 1870 1753 1872 1837 1916 1757 1604 1594 1546 1472 956 837 673 44 0 1 3 0 0 0 0
242 287 376 129 80 723 1875 2540 2522 2594 2489 2502 2332 2183 2328 2456 2683 2519 2250 2127 2014 1834 1838 1974 1869 2026 1919 1963 1846 1614 980 493 397 459 292 81 63 0 0 0 0 0 0
CIN
-385 -398 -434 -358 -322 -310 -305 -297 -322 -287 -283 -246 -214 -192 -178 -161 -167 -196 -209 -196 -171 -147 -129 -139 -171 -171 -191 -266 -363 -353 -386 -333 -272 -290 -337 -391 -352 -320 -337 -276 -368 -232 -151
-387 -520 -454 -357 -335 -318 -312 -298 -312 -287 -265 -225 -221 -225 -207 -170 -164 -202 -238 -210 -191 -185 -154 -170 -188 -210 -296 -312 -363 -396 -429 -321 -220 -238 -290 -97 -58 -54 -53 -54 -415 -322 -257
-404 -557 -468 -375 -326 -322 -309 -296 -305 -278 -252 -233 -215 -225 -220 -171 -183 -221 -225 -215 -192 -179 -145 -170 -157 -231 -319 -328 -378 -457 -561 -462 -290 -133 -135 -369 0 -607 -330 -559 -257 -317 -334
-400 -565 -512 -422 -354 -331 -318 -309 -305 -265 -255 -251 -235 -238 -214 -215 -232 -245 -243 -223 -216 -198 -162 -127 -149 -143 -218 -250 -320 -363 -432 -478 -355 -281 -191 -109 -610 -540 -328 -498 -373 -438 -378
-380 -451 -533 -513 -416 -356 -336 -304 -293 -263 -270 -289 -270 -252 -236 -252 -247 -243 -302 -286 -223 -209 -175 -115 -107 -150 -224 -296 -389 -424 -442 -468 -373 -291 -93 -156 -467 -630 -475 -367 -504 0 0
-305 -358 -644 -633 -516 -416 -363 -312 -294 -282 -290 -328 -326 -292 -270 -275 -250 -265 -320 -324 -249 -195 -172 -153 -156 -258 -347 -383 -442 -504 -509 -502 -466 -259 -116 -95 -321 -535 0 0 0 0 0
-242 -337 -640 -715 -594 -472 -378 -343 -305 -279 -294 -346 -361 -319 -286 -257 -238 -278 -335 -361 -284 -193 -155 -161 -259 -414 -498 -506 -552 -628 -276 0 0 -547 -166 -99 -266 -400 -496 0 0 0 0
-212 -307 -553 0 -686 -541 -408 -359 -327 -317 -363 -426 -424 -377 -324 -257 -256 -317 -351 -368 -297 -218 -192 -236 -384 -560 -677 -362 0 0 0 0 0 0 -250 -53 -167 -262 -404 -531 0 0 0
-162 -255 -466 -561 -86 -681 -520 -425 -380 -405 -485 -502 -455 -416 -346 -314 -353 -447 -500 -465 -365 -296 -313 -397 -588 -142 -109 0 0 0 0 0 0 0 -55 -97 -121 -162 -290 -331 0 0 0
-122 -189 -356 -555 -650 -651 -627 -601 -583 -607 -591 -555 -498 -433 -400 -429 -483 -600 -656 -568 -516 -474 -501 -606 0 0 0 0 0 0 0 0 0 0 0 -98 -115 -126 -203 -178 -267 -20 0
-122 -134 -267 -414 -492 -545 -555 -620 -637 -652 -629 -574 -490 -483 -536 -585 -651 -712 -787 -697 -708 -655 -679 0 0 0 0 0 0 0 0 0 0 0 -186 -180 -154 -160 -207 -111 -134 -224 -376
-110 -134 -186 -284 -335 -378 -410 -439 -667 -649 -569 -552 -529 -550 -591 -685 -600 -726 -688 -161 -634 -826 0 0 0 0 0 0 0 0 0 0 0 -76 -287 -310 -339 -386 -220 -117 -66 -115 -200
-100 -98 -126 -188 -245 -280 -274 -278 -444 -578 -631 -611 -571 -510 -598 -604 -571 -547 -523 -702 -685 -698 0 0 0 0 0 0 0 0 0 0 0 -278 -349 -414 -469 0 -344 -209 -94 -69 -107
-71 -93 -97 -139 -171 -212 -193 -174 -204 -378 -445 -507 -539 -494 -391 -564 -475 -283 -468 -456 -517 -539 -59 -52 0 0 0 0 0 -63 -66 -16 -384 -258 -394 -436 0 0 -224 -257 -163 -62 -72
-49 -82 -101 -99 -140 -135 -129 -114 -102 -166 -233 -274 -311 -341 -334 -274 -283 -216 -183 -253 -246 -403 -530 -613 -505 -510 -536 -172 -429 -314 -358 -351 -402 -301 -405 0 0 0 0 -188 -139 -21 -40
-26 -59 -93 -120 -143 -126 -139 -87 -96 -53 -121 -142 -153 -195 -227 -174 -164 -108 -144 -130 -206 -167 -217 -265 -235 -164 -98 -126 -153 -182 -219 -280 -299 -259 -186 0 0 0 0 0 -120 -21 -23
-6 -48 -89 -109 -123 -150 -117 -123 -67 -115 -62 -67 -89 -75 -157 -160 -107 -63 -84 -127 -99 -108 -71 -63 -80 -90 -55 -28 -68 -86 -190 -198 -205 -150 -162 -50 0 0 0 0 -56 -121 -61
-19 -17 -76 -127 -132 -151 -148 -120 -104 -79 -127 -111 -76 -92 -48 -131 -121 -85 -50 -87 -110 -72 -78 -89 -86 -69 -65 -56 -45 -44 -119 -163 -157 -148 -71 -61 -320 0 0 0 0 0 0
-5 -19 -85 -131 -168 -180 -165 -143 -132 -130 -101 -109 -104 -79 -90 -73 -118 -139 -94 -109 -64 -97 -71 -73 -86 -99 -80 -71 -34 -30 -38 -70 -74 -68 -72 -69 -65 -85 0 0 0 0 0
0 -10 -98 -154 -186 -194 -183 -144 -128 -138 -134 -122 -116 -134 -90 -104 -115 -125 -151 -98 -113 -82 -102 -89 -73 -47 -81 -62 -42 -81 -87 -36 -25 -48 -58 -52 -46 -73 0 0 0 0 0
0 -14 -84 -128 -189 -189 -196 -208 -200 -176 -181 -144 -155 -129 -156 -120 -116 -138 -139 -148 -101 -127 -130 -120 -93 -100 -102 -56 -62 -78 -96 -57 -54 -59 -74 -86 -77 -67 -121 0 0 0 0
-67 -30 -34 -91 -174 -198 -206 -214 -212 -202 -171 -179 -150 -150 -132 -138 -119 -123 -158 -162 -157 -146 -133 -142 -121 -116 -100 -76 -69 -32 -57 -50 -49 -84 -54 -52 -78 -78 -137 0 0 0 0
-102 -54 -49 -36 -93 -181 -200 -192 -184 -149 -171 -176 -164 -168 -160 -143 -130 -133 -134 -163 -168 -141 -174 -157 -127 -117 -103 -86 -51 -29 -39 -98 -91 -221 -209 -145 -117 -131 -214 0 0 0 0
-246 -42 -213 -84 -38 -92 -146 -138 -166 -158 -154 -139 -124 -114 -129 -112 -145 -137 -147 -141 -132 -123 -116 -90 -77 -70 -38 -55 -14 -44 -39 -75 -64 -128 0 -78 -339 -341 0 0 0 0 0
0 0 0 -303 -205 -31 -66 -78 -62 -44 -49 -59 -55 -75 -41 -41 -55 -104 -122 -123 -151 -95 -121 -97 -49 -22 -12 -15 -37 -13 -7 -8 -6 -9 -12 -223 0 0 0 0 0 0 0
-337 -340 -286 -317 -249 -99 -22 -17 -10 -6 -5 -6 -11 -15 -8 -7 -10 -22 -58 -88 -105 -116 -74 -51 -39 -18 -50 -37 -3 -4 -19 -112 -94 -105 -76 -113 -122 0 0 0 0 0 0
Wind_Speed
16 14 13 15 17 24 23 24 23 23 25 26 25 27 12 12 24 23 21 22 24 24 24 24 23 24 25 25 26 26 27 27 27 28 29 29 29 28 28 28 28 28 28
17 13 8 7 11 19 20 21 21 22 23 24 25 26 24 24 25 23 20 21 22 22 23 23 22 22 23 24 24 24 24 25 25 26 28 29 29 29 28 28 28 27 27
15 13 5 2 3 10 17 18 19 21 23 24 25 24 22 22 22 22 20 18 18 17 19 20 20 21 22 22 22 22 22 20 22 21 18 24 27 27 27 27 27 27 26
12 12 5 3 2 9 16 18 19 19 20 21 21 20 20 20 20 19 17 17 17 17 17 17 18 19 19 19 20 19 19 15 17 15 14 16 24 25 26 27 27 27 25
9 11 5 4 2 6 16 16 17 19 19 20 19 19 18 18 17 17 16 15 15 15 15 15 15 16 16 17 17 17 16 13 11 10 11 20 21 23 24 25 26 26 25
9 12 8 5 4 7 12 15 16 18 19 18 18 18 17 16 15 14 14 13 13 13 13 13 13 14 14 14 15 15 14 11 18 10 13 17 18 20 22 23 24 24 24
9 10 9 4 4 6 12 14 15 16 16 16 17 17 16 15 14 13 13 12 12 11 11 11 11 12 12 12 12 12 12 10 10 8 10 14 15 18 19 20 21 22 23
10 9 9 5 4 5 9 12 14 14 15 16 16 16 16 14 13 12 11 10 10 10 9 9 9 10 10 10 10 10 10 9 8 8 16 13 13 15 16 17 19 20 21
10 6 5 7 7 4 5 11 13 14 15 14 14 14 13 12 11 10 9 8 8 8 8 7 7 7 8 8 8 8 8 8 6 5 6 10 10 12 14 15 16 17 18
12 6 3 9 10 10 7 7 10 12 13 12 13 12 10 9 8 9 8 7 6 6 5 5 5 5 5 7 7 8 8 9 5 4 4 9 9 10 11 12 13 15 16
13 8 5 4 10 9 7 4 8 9 10 9 9 8 7 6 6 5 7 7 6 4 3 3 3 3 4 4 5 6 8 8 4 4 7 6 7 8 9 9 10 11 13
14 12 9 5 10 8 6 4 5 4 2 3 4 3 4 4 3 3 4 5 5 3 1 2 4 4 5 6 4 2 5 4 1 1 7 5 6 7 7 7 7 9 10
14 14 12 9 7 6 5 4 4 4 4 4 5 4 3 2 3 2 2 1 2 1 3 2 5 7 8 7 5 4 4 4 2 5 3 4 6 7 7 7 7 7 8
11 13 13 9 5 6 5 5 4 4 5 5 5 5 4 4 4 3 4 4 5 5 4 5 5 6 7 7 6 8 4 3 5 7 5 3 5 7 7 7 7 7 7
10 11 11 7 5 5 6 7 6 4 4 5 5 6 6 6 6 6 6 7 6 6 5 5 6 6 6 7 8 11 14 14 11 13 8 5 6 8 8 8 8 8 8
9 9 9 8 6 6 6 8 7 8 6 6 6 6 7 7 8 8 8 10 10 8 7 6 7 9 9 10 10 11 12 11 11 10 14 8 8 8 9 10 11 10 10
6 10 11 9 7 7 7 8 10 7 9 8 8 7 7 7 7 8 8 8 10 10 10 11 9 9 11 12 11 12 11 12 13 13 11 11 10 10 10 10 11 12 12
9 8 13 10 9 9 8 8 9 8 6 8 6 6 6 7 8 8 8 8 9 9 9 9 12 13 14 13 15 15 14 12 12 12 13 13 12 12 12 11 11 12 13
12 11 14 13 11 10 10 9 9 10 9 8 9 8 7 7 7 9 9 9 9 9 9 10 10 11 12 13 14 15 14 15 14 14 13 14 14 14 14 12 13 13 14
9 11 14 12 11 10 10 11 12 12 12 11 10 10 9 9 9 9 10 10 10 11 11 11 11 11 12 13 15 14 16 18 18 16 15 16 17 17 15 15 16 17 17
16 4 10 10 9 10 11 12 12 13 13 13 12 11 11 11 10 11 11 11 11 11 12 11 12 12 13 14 15 18 19 19 19 20 20 21 21 20 18 19 19 20 20
7 9 6 8 8 8 8 9 10 11 12 12 13 13 13 13 13 12 13 13 12 14 13 14 14 15 15 15 18 22 26 26 22 21 21 22 21 20 20 19 22 21 21
14 13 8 6 8 8 7 7 8 8 9 11 12 13 13 14 15 16 14 15 15 15 16 17 17 18 20 19 18 21 26 28 26 24 23 23 23 21 22 22 23 22 21
18 21 20 11 7 8 8 7 8 9 11 11 12 11 12 12 15 16 17 17 17 18 19 20 20 21 22 23 23 22 24 26 28 31 27 25 24 26 26 26 24 23 22
14 16 14 13 12 5 6 7 8 10 11 12 11 12 13 13 13 15 16 18 20 22 24 26 26 27 26 26 27 26 27 28 25 30 33 32 29 28 28 27 27 24 23
15 15 14 8 4 10 5 4 7 12 14 16 14 15 17 18 18 16 19 21 23 23 24 25 26 28 27 28 29 29 30 29 28 30 34 35 34 32 27 26 24 24 23
Wind_Direction
82 95 92 90 94 106 100 100 97 96 99 104 90 99 44 52 90 70 59 62 68 72 68 64 58 59 59 59 63 66 69 74 68 66 59 50 46 41 31 25 40 42 40
87 96 93 86 91 100 100 101 98 101 100 106 108 111 98 95 98 78 61 66 66 64 70 70 63 59 60 62 59 64 65 78 66 70 66 51 48 43 41 38 40 43 38
87 100 99 137 110 90 97 98 100 105 111 116 127 112 100 96 91 90 74 58 53 45 55 61 61 64 66 66 58 62 75 106 84 91 106 64 48 44 39 38 38 37 36
85 105 110 131 137 95 102 107 107 107 110 113 112 105 104 97 95 87 70 59 57 54 53 54 59 61 62 62 59 60 80 133 108 107 109 93 43 43 38 39 37 28 38
86 108 127 149 153 99 108 107 108 113 114 116 115 110 108 101 95 88 75 63 63 59 55 56 51 53 54 55 56 51 70 149 196 175 100 53 42 43 35 28 29 24 21
92 110 127 145 131 109 108 111 113 119 121 119 121 119 114 107 99 89 81 73 67 67 65 58 54 50 44 42 44 43 62 185 273 100 61 42 40 42 36 32 34 33 30
94 106 126 185 198 121 117 118 118 121 120 121 123 126 124 117 107 100 93 87 80 71 54 48 51 46 39 44 50 50 51 66 69 125 81 47 49 43 36 32 31 32 34
94 106 122 169 181 141 124 123 125 125 126 130 130 130 132 127 118 110 102 93 83 74 67 53 45 48 43 43 49 54 52 60 77 168 17 41 51 42 39 34 29 30 30
90 98 120 230 235 204 142 132 132 134 137 135 134 135 135 130 124 117 108 100 91 80 79 66 52 57 49 41 40 41 49 54 69 112 99 33 48 43 42 40 35 34 30
101 91 116 243 244 250 256 137 136 139 142 142 143 143 135 128 127 131 125 114 104 91 79 72 73 68 53 28 19 15 16 13 48 116 102 30 47 39 42 42 37 28 30
119 105 116 224 250 252 257 163 147 149 152 149 147 146 138 130 131 131 143 143 135 109 69 49 47 42 41 29 16 6 2 5 48 103 31 45 44 34 31 32 36 32 23
129 132 128 166 249 247 248 199 173 178 199 172 162 153 152 153 143 145 155 158 154 147 124 345 339 345 349 352 3 8 1 358 79 159 21 40 27 19 22 27 25 22 22
136 141 140 146 241 194 222 221 210 213 209 196 188 189 189 194 198 223 316 273 320 257 321 305 319 318 321 326 329 331 346 6 357 357 17 28 11 2 360 1 2 9 10
142 146 148 150 191 192 220 234 225 214 223 229 219 213 244 229 243 275 288 294 302 307 285 302 306 306 305 306 303 326 312 322 336 343 348 349 344 344 341 340 344 349 352
160 156 156 163 187 222 227 260 262 245 243 254 256 238 243 269 276 276 294 292 297 306 302 300 295 289 293 301 303 310 311 319 314 321 334 316 323 330 330 326 328 330 333
185 177 171 175 198 215 225 260 264 280 265 263 268 262 243 271 279 282 281 293 292 297 300 291 302 303 303 305 304 303 306 306 308 308 316 312 308 314 320 317 317 317 320
255 197 186 194 203 218 243 239 279 262 285 283 281 278 247 248 263 282 281 280 291 288 297 303 300 300 305 309 300 307 298 304 306 305 295 308 301 301 307 311 310 311 312
235 232 195 200 207 214 230 248 246 275 248 256 276 264 265 234 244 255 274 272 279 289 289 288 297 304 304 302 304 307 304 298 298 293 299 302 298 299 299 301 307 305 305
277 236 204 202 213 223 231 239 248 246 263 268 264 280 260 254 246 243 259 263 280 272 282 288 290 288 297 297 301 305 303 299 297 295 285 292 298 299 301 293 298 302 302
262 262 204 209 224 237 245 256 270 269 269 267 272 262 276 262 247 252 255 268 261 277 276 280 282 293 290 293 301 296 294 303 311 305 298 298 296 295 296 295 296 302 300
302 269 194 206 227 248 247 249 255 266 265 266 257 266 256 269 261 254 262 256 265 257 263 268 276 274 278 292 295 298 298 298 291 293 291 292 292 290 287 293 298 301 304
294 289 235 217 221 222 234 245 262 262 269 262 264 258 263 261 258 256 255 261 257 258 262 261 265 273 278 282 286 303 303 302 293 293 296 295 291 291 289 293 298 299 305
308 301 282 249 219 218 228 247 257 272 260 259 267 264 263 255 254 247 253 253 259 261 259 261 267 268 280 286 278 291 307 302 310 305 296 298 299 295 295 293 298 296 298
308 300 298 295 233 223 222 244 247 267 272 274 273 279 269 258 247 245 246 252 260 265 271 278 278 275 279 279 291 275 279 305 307 311 311 304 297 297 298 297 296 294 290
344 328 318 302 306 237 223 242 267 279 290 293 289 277 284 283 263 256 258 266 269 280 281 283 286 285 282 279 280 287 281 279 286 299 306 308 306 301 295 293 293 291 286
360 4 8 21 308 329 325 285 296 309 311 312 306 301 305 304 303 283 277 277 279 280 280 284 281 282 281 280 282 284 283 290 300 300 301 304 303 307 299 296 292 290 291